Zurück zum Katalog

ONEWEB-0109

AktivKommunikationPO
NORAD 47259·PAYLOAD·🇬🇧 United Kingdom

Gestartet Dec 18, 2020 von Vostochny Cosmodrome

Loading…

Nächste Überflüge (nächste 24 Stunden)

TLE

AktuellSource: CelesTrak SupGP

Epoche: Sep 14, 2026, 15:48 UTC

1 47259C 20100B   26257.65849949  .00002320  00000+0  64550-2 0  2571
2 47259  87.8998 332.9007 0001738  99.0506 325.4699 13.12446906    15

Verfolge ONEWEB-0109 in Echtzeit mit AllMySat

Download on the App Store